Weather History for Jackson, TN

Change the Weather History Date:

Wednesday, November 7, 2012

  Actual Average Record
Temperature  
Mean Temperature 43 °F 53 °F  
Max Temperature 53 °F 65 °F 81 °F (2005)
Min Temperature 32 °F 42 °F 18 °F (1993)
Degree Days  
Heating Degree Days 22 12  
Month to date heating degree days 103 77  
Since 1 July heating degree days 377 291  
Cooling Degree Days 0 0  
Month to date cooling degree days 0 2  
Year to date cooling degree days 1931 1693  
Moisture  
Dew Point 38 °F    
Average Humidity 81    
Maximum Humidity 100    
Minimum Humidity 61    
Precipitation  
Precipitation T in 0.14 in 3.74 in (1986)
Month to date precipitation 0.52 0.98  
Year to date precipitation 35.99 44.00  
Snow  
Snow 0.00 in 0.00 in 0.00 in (2002)
Month to date snowfall 0.0 0.0  
Since 1 July snowfall 0.0 0.0  
Since 1 September snowfall 0.0 0.0  
Snow Depth 0.00 in    
Sea Level Pressure  
Sea Level Pressure 30.06 in    
Wind  
Wind Speed 7 mph (NW)    
Max Wind Speed 24 mph    
Max Gust Speed 31 mph    
Visibility 10 miles    
Events      
T = Trace of Precipitation, MM = Missing Value Source: NWS Daily Summary

Daily Weather History Graph

Daily Weather History Graph

Search for Another Location

Airport:

Trip Planner

Search our weather history database for the weather conditions in past years. The results will help you decide how hot, cold, wet, or windy it might be!

Date:

Astronomy

Nov. 07, 2012 Rise Set
Actual Time 6:23 AM CST 4:54 PM CST
Civil Twilight 5:57 AM CST 5:21 PM CST
Nautical Twilight 5:26 AM CST 5:51 PM CST
Astronomical Twilight 4:56 AM CST 6:21 PM CST
Moon No Moon Rise 12:50 PM CST (11/7)
Length of Visible Light 11h 24m
Length of Day
10h 30m
Last Quarter, 43% of the Moon is Illuminated
Nov 7
Last Quarter
Nov 13
New
Nov 20
First Quarter
Nov 28
Full
Dec 6
Last Quarter

Hourly Weather History & Observations

Time (CST) Temp. Windchill Dew Point Humidity Pressure Visibility Wind Dir Wind Speed Gust Speed Precip Events Conditions
12:53 AM 46.0 °F 43.9 °F 42.1 °F 86% 29.98 in 10.0 mi West 4.6 mph - N/A   Mostly Cloudy
1:53 AM 46.0 °F 43.1 °F 42.1 °F 86% 29.97 in 10.0 mi West 5.8 mph - N/A   Overcast
2:53 AM 46.0 °F 43.9 °F 42.1 °F 86% 29.97 in 10.0 mi West 4.6 mph - N/A   Overcast
3:53 AM 45.0 °F 43.5 °F 41.0 °F 86% 29.97 in 10.0 mi West 3.5 mph - N/A   Overcast
4:53 AM 39.9 °F 37.8 °F 37.9 °F 93% 29.97 in 10.0 mi SSW 3.5 mph - N/A   Clear
5:53 AM 41.0 °F 37.1 °F 39.0 °F 93% 29.98 in 9.0 mi WSW 5.8 mph - N/A   Clear
6:53 AM 42.1 °F 38.4 °F 39.9 °F 92% 29.99 in 10.0 mi West 5.8 mph - N/A   Clear
7:53 AM 46.0 °F 42.5 °F 41.0 °F 83% 30.00 in 10.0 mi WNW 6.9 mph - N/A   Mostly Cloudy
8:53 AM 48.9 °F - 41.0 °F 74% 30.02 in 10.0 mi NW 10.4 mph - N/A   Mostly Cloudy
9:53 AM 50.0 °F - 39.9 °F 68% 30.02 in 10.0 mi NNW 12.7 mph - N/A   Overcast
10:53 AM 51.1 °F - 39.9 °F 66% 30.03 in 10.0 mi NW 10.4 mph - N/A   Overcast
11:53 AM 50.0 °F - 37.9 °F 63% 30.03 in 10.0 mi North 18.4 mph - N/A   Overcast
12:53 PM 50.0 °F - 37.9 °F 63% 30.03 in 10.0 mi NNW 15.0 mph - 0.00 in   Overcast
1:53 PM 48.9 °F - 39.0 °F 69% 30.05 in 10.0 mi North 19.6 mph 31.1 mph N/A   Overcast
2:53 PM 51.1 °F - 41.0 °F 68% 30.06 in 10.0 mi North 10.4 mph - 0.00 in   Partly Cloudy
3:53 PM 50.0 °F - 39.9 °F 68% 30.08 in 10.0 mi North 11.5 mph - N/A   Mostly Cloudy
4:53 PM 48.9 °F - 37.9 °F 66% 30.11 in 10.0 mi North 12.7 mph - N/A   Overcast
5:53 PM 46.9 °F - 37.9 °F 71% 30.13 in 10.0 mi North 8.1 mph - N/A   Mostly Cloudy
6:53 PM 43.0 °F 39.5 °F 37.0 °F 80% 30.15 in 10.0 mi NNW 5.8 mph - N/A   Clear
7:53 PM 41.0 °F - 36.0 °F 82% 30.17 in 10.0 mi Calm Calm - N/A   Clear
8:53 PM 37.9 °F - 35.1 °F 89% 30.18 in 10.0 mi Calm Calm - N/A   Clear
9:53 PM 34.0 °F - 33.1 °F 96% 30.18 in 10.0 mi Calm Calm - N/A   Clear
10:53 PM 34.0 °F - 33.1 °F 96% 30.18 in 10.0 mi Calm Calm - N/A   Clear
11:53 PM 32.0 °F 28.7 °F 30.0 °F 92% 30.19 in 10.0 mi SSW 3.5 mph - N/A   Clear